sat.trackr.live / text

‹ back to catalog

TOMORROW-S8

NORAD 66308 · 2025-248R

PAYLOAD ACTIVE UNKNOWN

§ Identity

Operator
Country
US
Launch date
2025-11-02
Launch site
AFETR
Launch vehicle
Mass (kg)
RCS (m²)

External: N2YO · Heavens-Above · Gunter

§ Orbital elements

Epoch: 2026-09-20T11:28:06.587328Z

Period
94.66 min
Inclination
45.3994°
Eccentricity
0.0004950
Mean motion
15.21211519 rev/d
Perigee alt
498.8 km
Apogee alt
505.6 km
Semi-major
6,880.3 km
B*
1.1333e-4
RAAN
329.9452°
Arg perigee
222.7714°
Mean anomaly
137.2788°
Rev number
4,902

§ Raw data

TOMORROW-S81 66308U 25248R   26263.47785402  .00002290  00000+0  11333-3 0  99962 66308  45.3994 329.9452 0004950 222.7714 137.2788 15.21211519 49025

JSON: /api/v1/satellites/66308 · /tle

For live sub-satellite position, see the globe view (requires WebGL).

§ Visibility from observer

Set your observer location to see the next 7 days of passes ≥ 10°. The values pass through the URL so the page stays shareable.

No JS? Fill the form by hand. The geolocation button needs JavaScript.